Regional Weather Roundup
Issued by NWS Grand Forks, ND

Home | Current Version | Previous Version | Graphics & Text | Print | Product List | Glossary On
Versions: 1 2 3 4 5 6 7 8 9 10 11 12 13 14 15 16 17 18 19 20 21 22 23 24 25 26 27 28 29 30 31 32 33 34 35 36 37 38 39 40 41 42 43 44 45 46 47 48 49 50
000
ASUS43 KFGF 231210
RWRFGF
PRAIRIE TO PINES  WEATHER ROUNDUP
NATIONAL WEATHER SERVICE EASTERN NORTH DAKOTA/GRAND FORKS ND
700 AM CDT THU MAR 23 2017

 **SATELLITE DATA USED TO AUGMENT SKY COVER AT AUTOMATED STATIONS**
 *****  WEATHER ACROSS EASTERN NORTH DAKOTA  *****

CITY           SKY/WX    TMP DP  RH WIND       PRES   REMARKS
GRAND FORKS    FAIR      33  21  61 S14       29.87F WCI  23
6HR MIN TEMP:  33; 6HR MAX TEMP:  35;

GRAND FRKS AFB FAIR      32  25  76 S15       29.87F WCI  21
DEVILS LAKE    FAIR      31  27  85 S9        29.81S WCI  23
6HR MIN TEMP:  29; 6HR MAX TEMP:  31;

FARGO          FAIR      37  25  61 S18G36    29.89F
WAHPETON ARPT  FAIR      34  25  69 SE18G24   29.93F WCI  23
$$

 ***** WEATHER ACROSS CENTRAL AND WESTERN NORTH DAKOTA  *****

CITY           SKY/WX    TMP DP  RH WIND       PRES   REMARKS
BISMARCK       LGT RAIN  34  30  85 NW6       29.81F
6HR MIN TEMP:  31; 6HR MAX TEMP:  35; 6HR PCP: TRACE;

MINOT          FAIR      35  29  78 CALM      29.75R
6HR MIN TEMP:  32; 6HR MAX TEMP:  36;

JAMESTOWN      FAIR      32  28  85 S12       29.81F WCI  23
6HR MIN TEMP:  28; 6HR MAX TEMP:  32;

MINOT AFB      FAIR      29  27  94 SE7       29.74S WCI  22
GARRISON         N/A     31  29  92 S5        29.78R
WILLISTON      FAIR      32  30  92 S5        29.76R
6HR MIN TEMP:  28; 6HR MAX TEMP:  32;

DICKINSON      CLOUDY    35  31  85 SE6       29.70F
6HR MIN TEMP:  31; 6HR MAX TEMP:  37; 6HR PCP: TRACE;

HETTINGER      MOCLDY    35  32  88 E6        29.71F
6HR MIN TEMP:  30; 6HR MAX TEMP:  37; 6HR PCP: TRACE;

$$

 *****  OTHER AIRPORT OBSERVATIONS IN OUR AREA  *****

CITY           SKY/WX    TMP DP  RH WIND       PRES   REMARKS
WALHALLA       NOT AVBL
GRAFTON AIRPOR FAIR      30  27  86 S12       29.88S WCI  21
VALLEY CITY AR FAIR      30  30 100 S13       29.86S WCI  20
CANDO          NOT AVBL
CAVALIER APRT  NOT AVBL
GWINNER        SUNNY     32  28  86 MISG      29.87S
SHEYENNE NWR     N/A     34  25  70 S13       29.95S WCI  25
ROLLA          FAIR      23  23 100 S10       29.75F WCI  12
 ***** THE ABOVE OBSERVATIONS ARE NON NWS ARE NOT QUALITY
       CONTROLLED AND MAY MIS-REPORT RAIN FOR SNOW...
$$

  *****  WEATHER ACROSS NORTHERN MINNESOTA  *****

CITY           SKY/WX    TMP DP  RH WIND       PRES   REMARKS
FLAG ISLAND    FAIR      28  23  80 SE17      29.91F WCI  16
WARROAD        FAIR      32  23  69 SE8       29.91F WCI  25
ROSEAU         FAIR      34  25  69 S15G21    29.89F WCI  24
HALLOCK        FAIR      32  27  80 S15       29.86F WCI  22
THF RVR FALLS    N/A    N/A N/A N/A MISG        N/A
BAUDETTE       FAIR      32  18  56 S13G20    29.94F WCI  22
6HR MIN TEMP:  31; 6HR MAX TEMP:  34;

WASKISH        FAIR      32  21  64 S9G18     29.96F WCI  24
CROOKSTON      FAIR      34  25  69 S16       29.89F WCI  23
GREENBUSH NDAW   N/A     32  25  74 S13         N/A  WCI  22
$$
  *****  WEATHER ACROSS CENTRAL AND WEST MINNESOTA  *****

CITY           SKY/WX    TMP DP  RH WIND       PRES   REMARKS
FOSSTON        FAIR      34  21  60 S15       29.91F WCI  24
BEMIDJI        FAIR      32  20  61 SE10      29.96F WCI  24
PARK RAPIDS    MOCLDY    35  19  52 S18       29.97F WCI  24
6HR MIN TEMP:  34; 6HR MAX TEMP:  35;

ELBOW LAKE     FAIR      34  24  65 E26G32    29.97S WCI  21
6HR MIN TEMP:  34; 6HR MAX TEMP:  36;

WADENA         CLOUDY    34  21  60 S16G25    29.99F WCI  23
DETROIT LAKES  FAIR      34  25  69 SE15G22   29.95F WCI  24
MOORHEAD       FAIR      36  25  64 S24G30    29.91F
FERGUS FALLS   FAIR      36  25  64 SE18G28   29.99F
MORRIS MN      MOCLDY    36  25  64 SE17      29.97S
STAPLES        CLOUDY    34  19  55 SE13G18   30.02F WCI  25
$$
  *****  WEATHER ELSEWHERE ACROSS MINNESOTA  *****

CITY           SKY/WX    TMP DP  RH WIND       PRES   REMARKS
DULUTH         FLURRIES  28  26  92 SE12      30.14F WCI  18
6HR MIN TEMP:  28; 6HR MAX TEMP:  31; 6HR PCP: TRACE;

INTRNTL FALLS  MOCLDY    32  18  56 S8        30.00F WCI  25
6HR MIN TEMP:  28; 6HR MAX TEMP:  33; 6HR PCP: TRACE;

ELY            CLOUDY    28  21  74 S9        30.10F WCI  20
CLOQUET        CLOUDY    28  25  86 E6        30.13F WCI  22
WHEATON        FAIR      36  27  69 SE16      29.96S
BRAINERD       CLOUDY    34  20  56 SE15G21   30.06F WCI  24
6HR MIN TEMP:  33; 6HR MAX TEMP:  34;

HIBBING        CLOUDY    29  21  72 S13G21    30.08F WCI  19
6HR MIN TEMP:  28; 6HR MAX TEMP:  30;

ALEXANDRIA     CLOUDY    36  23  59 SE17G26   30.00F
6HR MIN TEMP:  35; 6HR MAX TEMP:  36;

SAINT CLOUD    CLOUDY    36  22  56 SE16      30.08F
6HR MIN TEMP:  35; 6HR MAX TEMP:  36;

MINNEAPOLIS    CLOUDY    37  22  54 SE15      30.15F
6HR MIN TEMP:  36; 6HR MAX TEMP:  37; 6HR PCP: TRACE;

$$

  *****  WEATHER ACROSS SOUTH DAKOTA  *****

CITY           SKY/WX    TMP DP  RH WIND       PRES   REMARKS
SIOUX FALLS    MOCLDY    39  26  59 SE16      29.94F
6HR MIN TEMP:  39; 6HR MAX TEMP:  41;

BROOKINGS      FAIR      35  26  69 SE16      29.92F
WATERTOWN      FAIR      35  26  69 S18       29.89F WCI  24
6HR MIN TEMP:  35; 6HR MAX TEMP:  37;

HURON          FAIR      39  28  64 SE16G28   29.84F
6HR MIN TEMP:  38; 6HR MAX TEMP:  40;

SISSETON         N/A     35  29  78 S13       29.90F
ABERDEEN       FAIR      37  27  67 S13       29.86R
6HR MIN TEMP:  36; 6HR MAX TEMP:  37;

MITCHELL       FAIR      41  29  62 SE20G26   29.87F
PIERRE         FAIR      43  31  62 SE10      29.74F
6HR MIN TEMP:  42; 6HR MAX TEMP:  46;

MOBRIDGE       MOCLDY    42  30  62 SE6       29.71F
RAPID CITY     FAIR      47  40  76 NW10      29.66S
6HR MIN TEMP:  44; 6HR MAX TEMP:  50;

$$

  *****  SOME WEATHER IN NEARBY STATES *****

CITY           SKY/WX    TMP DP  RH WIND       PRES   REMARKS
GLASGOW MT     FAIR      35  31  85 CALM      29.73R
6HR MIN TEMP:  35; 6HR MAX TEMP:  43;

GREAT FALLS MT FAIR      31  25  78 SW13      29.81R WCI  21
6HR MIN TEMP:  26; 6HR MAX TEMP:  40;

CHEYENNE WY    FAIR      39  29  67 W8        29.74R
6HR MIN TEMP:  37; 6HR MAX TEMP:  51;

SCOTTSBLUFF NE FAIR      37  31  78 E8        29.69F
6HR MIN TEMP:  37; 6HR MAX TEMP:  49;

OMAHA NE       CLOUDY    46  23  40 SE16      30.01F
6HR MIN TEMP:  45; 6HR MAX TEMP:  46;

DES MOINES IA  CLOUDY    42  19  39 SE10G20   30.13F
6HR MIN TEMP:  42; 6HR MAX TEMP:  43;

DAVENPORT IA   CLOUDY    34  23  64 SE13      30.31S WCI  25
6HR MIN TEMP:  32; 6HR MAX TEMP:  35;

CHICAGO IL     CLOUDY    33  19  56 SE13      30.41S WCI  24
6HR MIN TEMP:  29; 6HR MAX TEMP:  33;

EAU CLAIRE WI  CLOUDY    33  20  58 SE10G18   30.23F WCI  25
6HR MIN TEMP:  32; 6HR MAX TEMP:  35; 6HR PCP: TRACE;

LA CROSSE WI   CLOUDY    35  21  56 SE13      30.27F
6HR MIN TEMP:  35; 6HR MAX TEMP:  38; 6HR PCP:  0.02;

$$

  *****  SOME NATIONAL WEATHER *****

CITY           SKY/WX    TMP DP  RH WIND       PRES   REMARKS
LA GUARDIA NY  FAIR      27   7  42 NW12      30.58R WCI  17
6HR MIN TEMP:  26; 6HR MAX TEMP:  27;

RALEIGH NC     FAIR      33  15  47 NE8       30.56R
6HR MIN TEMP:  31; 6HR MAX TEMP:  40;

ATLANTA GA     MOCLDY    51  29  42 E16       30.37R
6HR MIN TEMP:  51; 6HR MAX TEMP:  54;

NEW ORLEANS LA FAIR      65  63  93 NE5       30.17R
6HR MIN TEMP:  61; 6HR MAX TEMP:  66;

OKLAHOMA CITY  FAIR      57  54  89 S21       29.96S
6HR MIN TEMP:  57; 6HR MAX TEMP:  62;

ALBUQUERQUE NM FAIR      56  14  19 S12       29.85S
6HR MIN TEMP:  54; 6HR MAX TEMP:  64;

SALT LAKE CITY RAIN      41  37  86 SE5       29.75R
6HR MIN TEMP:  41; 6HR MAX TEMP:  51; 6HR PCP:  1.09;

LOS ANGELES CA FAIR      56  42  59 NW7       30.02R
6HR MIN TEMP:  54; 6HR MAX TEMP:  59;

BOISE ID       FAIR      38  33  82 NW10      29.95R
6HR MIN TEMP:  38; 6HR M


USA.gov is the U.S. government's official web portal to all federal, state and local government web resources and services.